Flag for France Weather past 2 weeks in Istres, France

Now
46 °F

Clear.


Feels Like: 46 °F
Forecast: 49 / 57 °F
Wind: 1 mph from North

Location: Istres Airport


UV Index: 3 (Moderate)

Visibility: N/A


Pressure: 29.71 "Hg

Humidity: 66%

Dew point: 36 °F

Location of IstresLocation

Historic Weather in Istres

°F

Istres temperature yesterday

Maximum temperature yesterday: 64 °F (at 3:30 PM)
Minimum temperature yesterday: 48 °F (at 11:00 PM)
Average temperature yesterday: 56 °F

Past Weeks' High & Low Weather Summary

 TemperatureHumidityPressure
High77 °F (Apr 6, 5:00 PM)100% (Apr 11, 12:30 AM)30.18 "Hg (Apr 11, 12:30 AM)
Low43 °F (Apr 17, 4:00 AM)17% (Apr 13, 6:00 PM)29.59 "Hg (Apr 19, 6:00 AM)
Average60 °F57%29.98 "Hg
* Reported Midnight between Apr 4 and Apr 5 — Apr 20 12:30 AM, Istres, Weather by CustomWeather, © 2014

Note: Actual official high and low records may vary slightly from our data, if they occured in-between our weather recording intervals... More about our weather records

Advertising

Historic Weather Conditions — Data for Previous 24 hours

 ConditionsComfort  
Time TempWeatherWind HumidityBarometerVisibility
12:30 AM
Apr 20
45 °FClear.5 mph66%29.71 "HgN/A
12:00 AM48 °FClear.2 mph58%29.71 "HgN/A
11:30 PM
Apr 19
50 °FClear.9 mph54%29.68 "HgN/A
11:00 PM48 °FClear.7 mph58%29.71 "HgN/A
10:30 PM50 °FClear.3 mph54%29.71 "HgN/A
10:00 PM52 °FClear.5 mph50%29.71 "HgN/A
9:30 PM54 °FClear.9 mph44%29.68 "HgN/A
9:00 PM57 °FClear.10 mph39%29.68 "HgN/A
8:30 PM57 °FClear.13 mph36%29.68 "HgN/A
8:00 PM59 °FClear.16 mph34%29.68 "HgN/A
7:30 PM61 °FClear.20 mph31%29.65 "HgN/A
7:00 PM61 °FClear.18 mph31%29.68 "HgN/A
6:30 PM63 °FClear.18 mph32%29.68 "HgN/A
6:00 PM63 °FClear.21 mph30%29.65 "HgN/A
5:30 PM63 °FClear.21 mph30%29.65 "HgN/A
5:00 PM63 °FClear.21 mph32%29.65 "HgN/A
4:30 PM64 °FClear.22 mph28%29.65 "HgN/A
4:00 PM64 °FClear.26 mph26%29.65 "HgN/A
3:30 PM64 °FClear.29 mph24%29.65 "HgN/A
3:00 PM63 °FClear.32 mph25%29.65 "HgN/A
2:30 PM63 °FClear.29 mph27%29.65 "HgN/A
2:00 PM63 °FClear.29 mph25%29.65 "HgN/A
1:30 PM61 °FClear.31 mph27%29.65 "HgN/A
1:00 PM61 °FClear.31 mph27%29.65 "HgN/A
12:30 PM61 °FClear.31 mph31%29.65 "HgN/A
12:00 PM59 °FClear.33 mph29%29.65 "HgN/A
11:30 AM57 °FClear.31 mph33%29.65 "HgN/A
11:00 AM55 °FClear.30 mph36%29.65 "HgN/A
10:30 AM55 °FClear.35 mph38%29.62 "HgN/A
10:00 AM54 °FClear.33 mph41%29.62 "HgN/A
9:30 AM52 °FClear.33 mph44%29.62 "HgN/A
9:00 AM52 °FClear.36 mph47%29.62 "HgN/A
8:30 AM50 °FClear.33 mph50%29.62 "HgN/A
8:00 AM50 °FClear.26 mph47%29.62 "HgN/A
7:30 AM50 °FClear.29 mph47%29.62 "HgN/A
7:00 AM52 °FClear.30 mph41%29.62 "HgN/A
6:30 AM52 °FClear.30 mph44%29.62 "HgN/A
6:00 AM52 °FClear.31 mph44%29.59 "HgN/A
5:30 AM52 °FClear.31 mph50%29.62 "HgN/A
5:00 AM52 °FClear.31 mph54%29.62 "HgN/A
4:30 AM54 °FClear.26 mph47%29.62 "HgN/A
4:00 AM54 °FClear.23 mph51%29.65 "HgN/A
3:30 AM54 °FClear.22 mph54%29.65 "HgN/A
3:00 AM54 °FClear.20 mph54%29.68 "HgN/A
2:30 AM54 °FClear.24 mph51%29.68 "HgN/A
2:00 AM55 °FClear.24 mph47%29.68 "HgN/A
1:30 AM55 °FClear.21 mph44%29.71 "HgN/A
1:00 AM55 °FClear.22 mph47%29.71 "HgN/A
Weather by CustomWeather, © 2014

See weather overview